Almeria, Spain

10:50 PM CET on November 20, 2018 (GMT +0100)
Almeria

Weather History for LEAM - September, 2018

Change the Weather History Date:

Friday, September 14, 2018

  Actual Average Record
Temperature  
Mean Temperature 81 °F -  
Max Temperature 89 °F 75 °F 93 °F (2011)
Min Temperature 73 °F 63 °F 62 °F (2006)
Cooling Degree Days 16    
Growing Degree Days 31 (Base 50)    
Moisture  
Dew Point 69 °F    
Average Humidity 71    
Maximum Humidity 94    
Minimum Humidity 40    
Precipitation  
Precipitation 0.02 in 0.02 in - ()
Sea Level Pressure  
Sea Level Pressure 30.03 in    
Wind  
Wind Speed 6 mph ()    
Max Wind Speed 18 mph    
Max Gust Speed -    
Visibility 6.4 miles    
Events      
Averages and records for this station are not official NWS values.
T = Trace of Precipitation, MM = Missing Value Source: Averaged Metar Reports

Daily Weather History Graph

Daily Weather History Graph

Search for Another Location

Airport or City:

Astronomy

Sep. 14, 2018 Rise Set
Actual Time 7:50 AM CEST 8:18 PM CEST
Civil Twilight 7:24 AM CEST 8:44 PM CEST
Nautical Twilight 6:54 AM CEST 9:15 PM CEST
Astronomical Twilight 6:22 AM CEST 9:46 PM CEST
Moon 12:44 PM CEST (9/14) 11:35 PM CEST (9/14)
Length of Visible Light 13h 20m
Length of Day
12h 28m
Waxing Crescent, 25% of the Moon is Illuminated
Sep 14
Waxing Crescent
Sep 17
First Quarter
Sep 25
Full
Oct 2
Last Quarter
Oct 9
New

Hourly Weather History & Observations

Time (CEST) Temp. Heat Index Dew Point Humidity Pressure Visibility Wind Dir Wind Speed Gust Speed Precip Events Conditions
12:00 AM 77.0 °F - 73.4 °F 89% 30.04 in - South 2.3 mph - N/A   Clear
12:30 AM 77.0 °F - 73.4 °F 89% 30.04 in - East 3.5 mph - N/A   Clear
1:00 AM 76 °F - 74 °F 91% 30.06 in - SW 3.5 mph - -  
1:00 AM 75.2 °F - 73.4 °F 94% 30.06 in - SW 2.3 mph - N/A   Clear
1:30 AM 75.2 °F - 73.4 °F 94% 30.06 in - SW 2.3 mph - N/A   Clear
2:00 AM 76 °F - 72 °F 85% 30.06 in - NNE 2.3 mph - -  
2:00 AM 77.0 °F - 71.6 °F 83% 30.04 in - Variable 2.3 mph - N/A   Clear
2:30 AM 75.2 °F - 71.6 °F 89% 30.04 in - Variable 2.3 mph - N/A   Clear
3:00 AM 75 °F - 72 °F 89% 30.05 in - NE 3.5 mph - -  
3:00 AM 75.2 °F - 71.6 °F 89% 30.04 in - Variable 2.3 mph - N/A   Clear
3:30 AM 75.2 °F - 71.6 °F 89% 30.04 in - Variable 2.3 mph - N/A   Clear
4:00 AM 75 °F - 72 °F 88% 30.05 in - WNW 2.3 mph - -  
4:00 AM 75.2 °F - 71.6 °F 89% 30.04 in - WNW 1.2 mph - N/A   Clear
4:30 AM 75.2 °F - 71.6 °F 89% 30.04 in - NW 4.6 mph - N/A   Clear
5:00 AM 75 °F - 71 °F 85% 30.04 in 9 mi North 5.8 mph - -   Scattered Clouds
5:00 AM 75.2 °F - 69.8 °F 83% 30.04 in 6.2 mi North 4.6 mph - N/A   Partly Cloudy
5:30 AM 75.2 °F - 69.8 °F 83% 30.01 in 6.2 mi North 4.6 mph - N/A   Partly Cloudy
6:00 AM 75 °F - 71 °F 83% 30.02 in - North 5.8 mph - -  
6:00 AM 75.2 °F - 69.8 °F 83% 30.01 in 6.2 mi North 5.8 mph - N/A   Partly Cloudy
6:30 AM 75.2 °F - 69.8 °F 83% 30.01 in 6.2 mi North 5.8 mph - N/A   Partly Cloudy
7:00 AM 74 °F - 70 °F 83% 30.03 in - North 3.5 mph - -  
7:00 AM 75.2 °F - 69.8 °F 83% 30.01 in 6.2 mi North 3.5 mph - N/A   Partly Cloudy
7:30 AM 75.2 °F - 68.0 °F 78% 30.01 in 6.2 mi NNW 4.6 mph - N/A   Partly Cloudy
8:00 AM 74 °F - 69 °F 80% 30.04 in 8 mi NNW 5.8 mph - -   Scattered Clouds
8:00 AM 75.2 °F - 68.0 °F 78% 30.04 in 6.2 mi NNW 4.6 mph - N/A   Partly Cloudy
8:30 AM 73.4 °F - 68.0 °F 83% 30.04 in 6.2 mi NNW 2.3 mph - N/A   Partly Cloudy
9:00 AM 76 °F - 69 °F 75% 30.05 in - NNW 6.9 mph - -  
9:00 AM 75.2 °F - 68.0 °F 78% 30.04 in 6.2 mi North 5.8 mph - N/A   Partly Cloudy
9:30 AM 77.0 °F - 68.0 °F 74% 30.04 in 6.2 mi NNW 5.8 mph - N/A   Partly Cloudy
10:00 AM 78 °F - 69 °F 67% 30.06 in - NNW 6.9 mph - -  
10:00 AM 77.0 °F - 68.0 °F 74% 30.04 in 6.2 mi NNW 6.9 mph - N/A   Partly Cloudy
10:30 AM 78.8 °F - 68.0 °F 69% 30.06 in 6.2 mi NW 4.6 mph - N/A   Partly Cloudy
11:00 AM 82 °F - 70 °F 60% 30.07 in 9 mi East 2.3 mph - -   Scattered Clouds
11:00 AM 80.6 °F 83.9 °F 69.8 °F 70% 30.06 in 6.2 mi Variable 2.3 mph - N/A   Partly Cloudy
11:30 AM 82.4 °F 85.4 °F 68.0 °F 62% 30.06 in 6.2 mi ENE 10.4 mph - N/A   Partly Cloudy
12:00 PM 86 °F - 70 °F 49% 30.07 in - East 12.7 mph - -  
12:00 PM 84.2 °F 87.3 °F 68.0 °F 58% 30.06 in 6.2 mi East 11.5 mph - N/A   Scattered Clouds
12:30 PM 86.0 °F 89.4 °F 68.0 °F 55% 30.06 in 6.2 mi East 10.4 mph - N/A   Partly Cloudy
1:00 PM 87 °F - 70 °F 47% 30.06 in - East 11.5 mph - -  
1:00 PM 86.0 °F 89.4 °F 68.0 °F 55% 30.06 in 6.2 mi East 11.5 mph - N/A   Scattered Clouds
1:30 PM 87.8 °F 91.4 °F 68.0 °F 52% 30.04 in 6.2 mi ESE 11.5 mph - N/A   Scattered Clouds
2:00 PM 89.6 °F 92.2 °F 66.2 °F 46% 30.04 in 6.2 mi East 12.7 mph - N/A   Partly Cloudy
2:30 PM 89.6 °F 91.1 °F 64.4 °F 43% 30.01 in 6.2 mi East 15.0 mph - N/A   Partly Cloudy
3:00 PM 89 °F - 68 °F 41% 30.01 in - East 15.0 mph - -  
3:00 PM 89.6 °F 93.4 °F 68.0 °F 49% 30.01 in 6.2 mi East 15.0 mph - N/A   Partly Cloudy
4:00 PM 89 °F - 68 °F 41% 30.00 in - East 18.4 mph - -  
4:30 PM 87.8 °F 91.4 °F 68.0 °F 52% 29.98 in 6.2 mi East 16.1 mph - N/A   Partly Cloudy
5:00 PM 87.8 °F 90.4 °F 66.2 °F 49% 29.98 in 6.2 mi East 16.1 mph - N/A   Partly Cloudy
5:30 PM 87.8 °F 90.4 °F 66.2 °F 49% 29.98 in 6.2 mi East 15.0 mph - N/A   Partly Cloudy
6:00 PM 88 °F - 67 °F 40% 29.99 in - East 15.0 mph - -  
6:00 PM 86.0 °F 88.2 °F 66.2 °F 51% 29.98 in 6.2 mi East 15.0 mph - N/A   Partly Cloudy
6:30 PM 84.2 °F 86.6 °F 66.2 °F 55% 29.98 in 6.2 mi East 15.0 mph - N/A   Partly Cloudy
7:00 PM 83 °F - 68 °F 52% 29.99 in - East 13.8 mph - -  
7:00 PM 82.4 °F 84.6 °F 66.2 °F 58% 29.98 in 6.2 mi East 13.8 mph - N/A   Partly Cloudy
7:30 PM 82.4 °F 85.4 °F 68.0 °F 62% 30.01 in 6.2 mi ESE 13.8 mph - N/A   Partly Cloudy
8:00 PM 80.6 °F 83.9 °F 69.8 °F 70% 30.01 in 6.2 mi ESE 12.7 mph - N/A   Scattered Clouds
8:30 PM 78.8 °F - 68.0 °F 69% 30.01 in 6.2 mi East 10.4 mph - N/A   Scattered Clouds
9:00 PM 79 °F - 70 °F 68% 30.02 in - East 8.1 mph - -  
9:00 PM 78.8 °F - 69.8 °F 74% 30.01 in 6.2 mi East 8.1 mph - N/A   Scattered Clouds
9:30 PM 78.8 °F - 69.8 °F 74% 30.01 in 6.2 mi East 6.9 mph - N/A   Scattered Clouds
10:00 PM 79 °F - 70 °F 68% 30.03 in - ENE 6.9 mph - -  
10:00 PM 78.8 °F - 69.8 °F 74% 30.01 in 6.2 mi ENE 5.8 mph - N/A   Partly Cloudy
10:30 PM 77.0 °F - 69.8 °F 78% 30.01 in 6.2 mi East 4.6 mph - N/A   Partly Cloudy
11:00 PM 78 °F - 71 °F 72% 30.04 in - East 5.8 mph - -  
11:00 PM 77.0 °F - 69.8 °F 78% 30.04 in 6.2 mi East 5.8 mph - N/A   Unknown
11:30 PM 77.0 °F - 69.8 °F 78% 30.04 in 6.2 mi East 10.4 mph - N/A   Unknown